QZS-1 (MICHIBIKI-1)

Last updated on Jan. 22, 2021, 6:26 a.m. UTC

1 37158U 10045A   21021.64419833 -.00000159  00000-0  00000-0 0  9994
2 37158  41.8270 140.5216 0758731 270.5638  81.9801  1.00260785 37960
UTC
Height (km)
Latitude
Longitude
Inclination
Orbital Period
UTC large
Height (km)
Speed (km/s)
/
Latitude / Longitude
Inclination (degrees)
Orbital Period (minutes)
Azimuth
Elevation
Range (km)
Doppler Factor
iOS Compass Heading
iOS Angle

Next 30 passes for location: Hong Kong

Rise time Rise Azimuth (degrees) Set time Set Azimuth (degrees) Duration Max altitude (degrees)

No matching passes for this satellites